Wind_Speed
15 14 15 14 14 13 13 13 13 13 13 14 14 15 14 14 14 14 13 13 13 12 11 11 10 10 10 10 9 8 8 8 8 8 8 8 9 9 9 9 9 9 9
16 15 13 13 13 12 13 13 13 13 14 14 15 15 15 14 14 14 14 14 14 13 12 12 12 11 11 11 10 9 9 9 9 9 9 9 10 9 10 9 9 9 9
16 15 15 14 13 13 13 13 14 14 14 15 16 15 15 15 15 15 15 15 14 13 13 13 13 13 13 12 11 11 10 10 10 10 10 9 10 10 10 10 10 10 10
17 16 15 15 14 14 14 14 15 15 15 16 16 15 15 16 15 15 15 15 14 14 13 14 14 13 13 12 11 11 11 11 11 11 11 10 10 11 11 11 11 11 10
19 17 16 15 15 15 15 15 16 16 16 17 16 16 16 16 16 16 15 15 14 14 14 14 15 14 13 12 12 11 12 11 12 12 11 11 11 11 11 11 11 11 11
20 18 17 16 16 16 15 16 17 17 17 17 17 17 17 17 17 17 16 15 15 14 14 14 14 13 12 12 12 12 12 12 12 12 12 12 12 12 12 12 12 12 12
19 18 17 17 16 16 16 17 17 17 17 18 18 17 17 17 17 17 17 17 15 14 14 14 14 13 13 13 13 13 13 13 13 13 13 13 13 13 13 13 13 13 13
19 19 18 17 17 17 17 18 18 18 18 18 18 18 18 18 17 17 17 17 16 15 14 14 14 14 13 14 14 14 14 14 14 13 14 14 14 14 14 14 15 15 14
22 20 18 18 19 18 18 19 19 19 20 19 19 19 19 19 18 17 17 17 17 16 15 14 14 15 15 15 15 15 15 15 15 15 15 14 14 15 15 16 15 15 16
23 21 20 20 20 19 19 20 20 20 20 20 20 19 19 19 18 17 17 17 17 16 15 15 15 16 15 16 16 16 16 15 15 15 15 15 15 15 16 16 16 17 16
23 21 21 20 20 20 19 20 20 20 20 20 20 20 20 19 18 17 17 17 17 16 15 15 15 16 17 16 16 16 15 15 15 15 15 15 15 15 15 15 16 16 16
23 22 21 20 20 20 20 20 20 20 19 20 20 20 19 19 18 18 18 18 17 17 17 17 17 18 18 17 17 16 15 15 14 15 15 15 14 14 15 15 15 16 16
24 23 21 21 21 21 21 21 20 20 20 20 20 19 19 19 18 18 19 19 19 18 18 18 18 18 18 17 17 16 15 15 15 15 15 14 14 14 14 15 15 15 15
24 23 22 21 21 22 22 21 20 20 20 20 20 19 18 19 19 18 19 19 19 18 18 18 19 18 17 17 16 15 15 15 15 15 15 15 14 14 14 14 15 15 15
24 23 23 22 22 22 22 21 21 21 21 21 20 19 19 18 18 19 19 19 19 19 19 19 20 19 17 17 16 15 15 16 16 16 15 14 14 14 14 15 15 15 16
25 24 23 23 23 23 22 22 22 21 21 21 21 20 19 19 19 19 19 19 19 19 19 19 20 18 18 16 16 16 16 15 15 14 15 15 14 15 15 15 16 16 17
24 24 24 23 24 24 23 22 21 21 21 21 21 20 20 20 19 19 20 20 20 20 20 20 19 18 17 17 17 16 16 15 15 15 15 15 15 15 15 16 17 18 18
25 24 24 23 24 24 23 22 22 22 22 22 22 21 20 20 20 21 21 21 21 21 21 20 19 19 18 18 17 17 15 15 15 15 15 15 15 16 16 17 18 19 19
24 24 24 23 22 23 22 22 22 22 22 22 22 22 21 21 21 22 22 22 21 21 21 20 20 20 19 18 18 17 16 16 16 16 16 16 16 17 17 18 19 20 20
24 24 24 22 22 22 23 23 23 23 23 23 22 22 22 22 22 22 22 21 21 20 21 21 20 19 19 19 19 19 18 18 18 17 17 17 17 17 18 19 20 21 21
26 25 24 22 22 23 23 23 23 23 23 23 23 22 22 21 21 21 21 21 21 20 20 20 19 19 19 20 20 20 19 19 19 19 18 18 18 19 19 20 21 22 22
27 26 25 23 23 24 24 25 25 24 23 23 22 22 22 21 21 21 20 20 20 20 20 20 19 20 20 20 20 20 20 20 20 20 20 20 20 21 21 22 23 23 23
26 26 26 25 24 25 25 26 25 24 23 23 22 21 21 21 20 20 19 20 20 20 19 20 20 20 21 20 21 21 21 21 21 21 21 21 22 22 23 24 25 25 25
26 26 26 26 25 26 26 26 25 24 24 23 23 22 22 21 20 20 20 20 20 20 20 20 20 20 21 21 21 22 22 22 22 22 22 22 23 23 24 25 26 26 26
26 26 26 26 26 26 25 25 25 24 24 23 23 23 23 22 21 21 21 21 21 21 21 21 21 20 20 20 21 22 22 22 23 23 23 24 24 24 25 25 25 25 25
27 26 26 26 26 25 25 24 24 23 23 23 23 23 23 23 22 22 21 21 22 22 22 22 22 22 22 22 22 23 23 24 24 24 25 25 25 25 25 25 25 25 25
Wind_Direction
279 280 282 285 290 294 300 306 308 310 314 318 320 318 320 323 326 326 323 323 321 320 320 321 318 319 318 315 306 301 292 285 285 280 276 274 279 279 280 283 280 275 277
278 280 285 288 289 290 294 300 306 310 312 314 316 317 315 316 320 321 320 318 316 315 316 317 316 314 313 311 304 298 295 290 284 277 275 271 277 277 278 280 278 276 278
274 279 283 285 289 292 292 297 305 308 311 313 315 317 318 315 315 314 315 314 313 312 313 314 313 312 308 307 302 295 291 290 286 285 282 275 279 279 277 277 279 279 279
273 276 278 282 286 289 291 296 301 305 308 310 313 314 316 316 315 313 312 313 310 309 309 312 312 311 307 305 301 294 290 287 284 282 282 279 280 282 278 278 279 280 282
271 274 275 277 281 284 286 291 296 301 304 306 309 311 311 311 311 312 312 312 311 308 308 309 309 308 308 306 303 298 292 290 286 282 280 277 279 280 280 281 279 278 279
265 271 275 276 279 281 283 286 291 296 298 302 305 308 310 309 310 310 311 310 309 307 306 306 305 305 307 306 304 298 294 291 288 283 280 278 280 280 277 280 281 280 281
265 268 269 271 276 279 282 284 288 291 294 298 300 303 307 307 308 309 310 310 309 309 309 305 304 302 302 304 304 300 295 290 286 284 280 277 277 278 277 280 283 283 283
265 267 267 270 274 279 282 284 286 288 291 293 295 298 302 302 303 306 309 309 307 307 307 306 304 302 300 302 303 301 296 290 287 284 282 278 275 277 278 279 281 280 281
263 266 269 271 273 276 279 282 284 285 286 288 292 294 298 299 299 302 305 307 308 305 302 303 305 304 302 303 301 302 296 291 288 286 283 280 278 277 278 279 279 279 279
262 264 266 268 269 272 276 281 283 284 285 287 291 295 297 299 298 301 302 305 307 306 302 299 302 305 304 303 302 299 294 291 289 288 286 281 279 280 278 278 279 279 278
263 262 263 264 266 269 274 279 282 284 285 287 290 294 295 297 297 298 301 304 305 304 303 301 301 301 300 300 302 300 296 292 289 288 286 282 281 282 282 283 280 280 281
261 259 259 259 264 269 273 277 279 281 283 286 290 292 293 293 296 297 297 300 301 299 299 300 300 301 301 298 299 298 295 293 289 288 285 283 284 283 284 286 286 285 285
256 258 258 260 263 268 272 276 276 280 282 284 287 291 293 293 293 294 294 296 297 297 297 296 297 299 299 298 297 293 292 290 289 288 286 288 288 289 288 289 290 289 287
253 255 258 261 263 267 271 275 276 278 281 284 286 288 290 293 292 291 292 294 294 295 296 296 298 297 296 295 297 294 291 289 287 286 286 288 290 291 290 291 290 290 290
254 255 258 261 264 267 269 272 274 275 278 282 284 287 287 290 292 292 292 293 294 294 294 293 296 295 292 293 293 295 291 287 285 285 286 287 287 287 289 292 291 290 293
256 257 258 259 262 265 268 270 272 273 277 279 281 282 285 288 290 290 291 291 292 294 293 292 294 293 291 291 292 294 293 290 287 286 285 286 288 288 288 291 292 293 294
255 257 258 259 261 264 267 269 269 272 275 276 279 281 281 285 286 287 289 290 292 294 292 291 292 291 288 288 290 293 292 290 290 288 286 286 287 288 289 291 292 294 295
253 255 257 258 260 263 265 267 268 270 273 275 277 281 281 283 284 286 289 290 292 291 290 289 289 289 287 285 286 288 288 289 291 289 287 288 288 289 291 293 295 295 294
255 256 258 260 260 260 262 266 268 270 273 274 276 279 281 282 282 284 287 288 289 288 288 286 286 286 285 283 283 283 284 286 287 288 287 287 287 289 291 293 295 297 295
254 256 258 259 260 259 261 265 268 271 274 276 277 278 280 281 281 284 284 286 288 287 287 287 285 284 282 281 281 282 284 285 285 285 286 288 289 291 292 293 295 295 294
254 256 257 258 260 260 262 265 269 273 276 278 279 279 277 278 280 282 282 284 286 287 286 284 283 283 283 283 283 282 282 284 285 285 285 287 289 292 293 294 295 295 293
255 255 257 259 261 263 264 267 270 272 274 276 277 277 277 276 278 279 280 283 286 286 285 284 283 283 283 283 283 283 282 283 284 283 284 287 289 291 294 294 295 294 293
254 256 258 260 262 265 267 267 267 268 270 271 273 275 275 275 275 277 279 282 284 285 284 284 284 285 284 282 282 282 282 282 284 285 286 287 289 291 293 294 295 294 294
253 255 258 261 264 266 267 268 265 266 267 267 269 270 272 274 274 275 277 279 282 283 284 284 284 285 285 284 283 282 281 282 285 285 286 287 290 291 291 293 294 295 295
255 257 259 261 263 265 268 268 266 263 261 263 266 269 270 272 274 274 275 276 279 281 283 284 283 284 284 284 285 284 283 285 287 287 286 287 289 290 291 293 295 296 295
255 258 260 260 261 263 264 264 265 262 260 261 264 267 271 271 273 273 274 276 279 280 281 283 283 282 283 284 284 285 286 286 287 288 288 288 288 289 291 293 294 295 294
Height
5884 5883 5883 5883 5883 5883 5882 5882 5881 5880 5879 5878 5877 5876 5874 5873 5872 5870 5869 5867 5866 5864 5863 5862 5861 5860 5860 5859 5858 5857 5857 5857 5857 5858 5858 5858 5858 5858 5859 5859 5859 5859 5860
5881 5881 5881 5881 5880 5880 5880 5880 5879 5879 5878 5877 5875 5874 5873 5871 5870 5869 5867 5866 5864 5863 5862 5861 5860 5859 5858 5857 5856 5856 5856 5856 5855 5856 5856 5857 5857 5856 5857 5857 5857 5857 5857
5877 5878 5878 5879 5878 5878 5878 5878 5878 5877 5876 5875 5874 5872 5871 5870 5869 5867 5866 5864 5863 5861 5860 5859 5858 5857 5856 5855 5854 5854 5853 5854 5854 5854 5854 5854 5855 5855 5855 5854 5855 5855 5855
5874 5875 5875 5876 5876 5876 5876 5876 5875 5875 5874 5873 5872 5871 5869 5868 5866 5865 5863 5862 5860 5859 5858 5857 5856 5855 5854 5853 5852 5852 5851 5852 5851 5852 5851 5852 5852 5852 5853 5853 5852 5852 5853
5871 5872 5872 5873 5873 5873 5873 5873 5873 5872 5871 5870 5869 5868 5867 5865 5864 5862 5861 5859 5858 5857 5856 5855 5854 5853 5852 5851 5850 5850 5850 5849 5849 5849 5848 5849 5849 5849 5850 5850 5850 5850 5850
5868 5868 5869 5870 5870 5870 5870 5870 5870 5869 5868 5867 5866 5865 5864 5862 5861 5860 5858 5857 5856 5855 5853 5852 5851 5851 5850 5849 5848 5847 5847 5847 5846 5846 5846 5846 5846 5847 5847 5847 5847 5847 5847
5864 5865 5865 5866 5866 5866 5866 5866 5866 5866 5865 5864 5863 5862 5861 5860 5858 5857 5856 5854 5854 5852 5851 5850 5849 5848 5847 5847 5846 5845 5844 5844 5844 5843 5843 5843 5843 5843 5843 5843 5843 5843 5843
5860 5861 5861 5862 5863 5863 5863 5862 5862 5862 5861 5861 5860 5859 5858 5856 5855 5854 5853 5852 5851 5849 5848 5847 5846 5845 5845 5844 5843 5842 5841 5841 5840 5840 5840 5840 5839 5839 5840 5840 5840 5840 5840
5857 5858 5858 5858 5859 5859 5859 5859 5858 5858 5858 5857 5856 5855 5854 5853 5852 5851 5850 5849 5847 5846 5845 5845 5844 5842 5842 5841 5840 5839 5838 5838 5837 5836 5836 5836 5835 5836 5836 5836 5836 5836 5836
5852 5854 5854 5854 5854 5854 5855 5855 5854 5854 5853 5853 5852 5852 5851 5849 5849 5848 5847 5846 5845 5843 5842 5841 5841 5840 5838 5838 5837 5836 5835 5834 5833 5833 5832 5832 5832 5832 5831 5831 5831 5832 5832
5848 5849 5849 5850 5850 5850 5850 5850 5850 5850 5849 5849 5848 5847 5847 5846 5845 5844 5844 5843 5842 5841 5840 5838 5837 5836 5835 5834 5834 5832 5831 5831 5830 5829 5829 5828 5828 5828 5828 5828 5828 5827 5827
5843 5844 5844 5844 5845 5846 5846 5846 5846 5846 5845 5845 5844 5843 5842 5842 5841 5840 5840 5839 5838 5837 5836 5835 5834 5833 5832 5831 5830 5829 5828 5827 5826 5826 5825 5825 5825 5825 5824 5824 5824 5823 5823
5838 5838 5840 5840 5841 5841 5842 5842 5842 5841 5841 5841 5840 5839 5838 5837 5837 5836 5836 5835 5834 5833 5832 5831 5830 5829 5828 5826 5825 5825 5824 5824 5823 5822 5821 5821 5821 5821 5821 5820 5820 5820 5819
5832 5834 5835 5836 5837 5837 5837 5837 5837 5837 5836 5836 5835 5834 5833 5833 5832 5831 5831 5831 5830 5829 5828 5827 5826 5825 5824 5823 5822 5821 5820 5820 5819 5819 5819 5818 5818 5818 5817 5817 5816 5816 5815
5826 5828 5830 5831 5831 5832 5832 5832 5832 5832 5832 5832 5831 5830 5829 5828 5827 5827 5827 5827 5826 5825 5824 5823 5822 5821 5820 5819 5818 5817 5817 5816 5816 5815 5815 5815 5814 5814 5814 5813 5813 5812 5811
5821 5823 5824 5825 5826 5827 5827 5827 5827 5827 5827 5827 5827 5825 5825 5824 5824 5824 5823 5822 5821 5821 5820 5819 5818 5817 5816 5815 5814 5814 5813 5813 5812 5812 5811 5811 5811 5811 5810 5810 5809 5808 5807
5816 5817 5818 5820 5820 5821 5822 5822 5822 5822 5822 5822 5822 5821 5821 5821 5820 5819 5819 5818 5817 5816 5815 5814 5814 5813 5812 5812 5811 5810 5810 5809 5808 5808 5808 5807 5807 5807 5806 5806 5805 5804 5802
5810 5811 5812 5813 5815 5816 5816 5817 5817 5817 5817 5817 5817 5816 5815 5816 5815 5815 5814 5813 5812 5811 5810 5810 5809 5808 5808 5808 5807 5807 5806 5805 5805 5805 5804 5804 5803 5803 5802 5801 5800 5799 5798
5804 5806 5807 5808 5809 5810 5811 5811 5812 5812 5812 5811 5811 5811 5811 5810 5810 5809 5808 5807 5806 5806 5805 5804 5804 5804 5803 5803 5803 5802 5802 5802 5801 5801 5800 5800 5799 5798 5797 5796 5795 5794 5792
5798 5800 5801 5802 5803 5804 5805 5806 5806 5806 5806 5806 5805 5805 5805 5805 5804 5804 5803 5802 5801 5800 5800 5799 5799 5799 5799 5798 5798 5798 5798 5797 5797 5796 5796 5795 5794 5793 5792 5791 5790 5788 5786
5793 5794 5795 5796 5797 5798 5799 5800 5800 5800 5800 5800 5799 5799 5799 5799 5799 5798 5797 5796 5796 5795 5794 5794 5794 5794 5794 5793 5793 5793 5793 5792 5792 5791 5791 5790 5789 5788 5787 5786 5784 5782 5780
5786 5788 5789 5790 5791 5793 5793 5794 5794 5794 5794 5794 5794 5794 5793 5793 5793 5792 5792 5791 5790 5790 5789 5789 5789 5789 5789 5788 5787 5787 5787 5786 5786 5786 5785 5784 5783 5782 5781 5780 5778 5776 5774
5780 5781 5783 5784 5785 5786 5787 5787 5787 5788 5788 5788 5788 5787 5787 5787 5787 5787 5786 5786 5786 5785 5785 5784 5784 5784 5783 5783 5782 5782 5781 5781 5780 5779 5779 5778 5777 5775 5774 5773 5771 5769 5767
5774 5775 5776 5777 5779 5779 5780 5780 5780 5781 5782 5782 5782 5782 5782 5782 5781 5781 5781 5781 5781 5780 5780 5779 5779 5778 5777 5777 5776 5776 5776 5775 5774 5773 5772 5771 5770 5768 5767 5766 5764 5762 5760
5767 5768 5770 5771 5772 5772 5773 5773 5774 5774 5775 5776 5776 5776 5776 5776 5776 5776 5776 5776 5775 5775 5774 5774 5773 5772 5771 5771 5770 5769 5769 5768 5767 5766 5765 5764 5763 5761 5760 5758 5756 5754 5752
5760 5761 5763 5764 5765 5766 5767 5767 5767 5768 5769 5769 5770 5770 5770 5770 5770 5770 5770 5770 5770 5769 5769 5768 5767 5766 5766 5765 5764 5763 5762 5761 5760 5759 5758 5757 5755 5754 5752 5751 5749 5747 5745